Weather History for Wayne, NE

Change the Weather History Date:

Wednesday, July 31, 2013

  Actual Average (KOFK) Record (KOFK)
Temperature  
Mean Temperature 68 °F 75 °F  
Max Temperature 81 °F 86 °F 105 °F (1955)
Min Temperature 54 °F 64 °F 48 °F (1904)
Degree Days  
Heating Degree Days 0 0  
Month to date heating degree days 0  
Since 1 June heating degree days 34  
Since 1 July heating degree days 4  
Cooling Degree Days 2 10  
Month to date cooling degree days 314  
Year to date cooling degree days 561  
Since 1 June cooling degree days 500  
Growing Degree Days 18 (Base 50)    
Moisture  
Dew Point 61 °F    
Average Humidity 82    
Maximum Humidity 100    
Minimum Humidity 48    
Precipitation  
Precipitation 0.00 in 0.10 in 2.85 in (1961)
Month to date precipitation 3.32  
Year to date precipitation 17.28  
Snow  
Snow 0.00 in 0.00 in - ()
Month to date snowfall 0.0  
Since 1 July snowfall 0.0  
Snow Depth -    
Sea Level Pressure  
Sea Level Pressure 30.12 in    
Wind  
Wind Speed 2 mph (NNW)    
Max Wind Speed 8 mph    
Max Gust Speed -    
Visibility 6 miles    
Events Rain    
T = Trace of Precipitation, MM = Missing Value Source: NWS Daily Summary

Daily Weather History Graph

Daily Weather History Graph

Search for Another Location

Airport:

Trip Planner

Search our weather history database for the weather conditions in past years. The results will help you decide how hot, cold, wet, or windy it might be!

Date:

Astronomy

Jul. 31, 2013 Rise Set
Actual Time 6:20 AM CDT 8:47 PM CDT
Civil Twilight 5:48 AM CDT 9:19 PM CDT
Nautical Twilight 5:08 AM CDT 9:58 PM CDT
Astronomical Twilight 4:24 AM CDT 10:43 PM CDT
Moon 1:16 AM CDT (7/31) 4:05 PM CDT (7/31)
Length of Visible Light 15h 31m
Length of Day
14h 27m
Waning Crescent, 31% of the Moon is Illuminated
Jul 31
Waning Crescent
Aug 6
New
Aug 14
First Quarter
Aug 20
Full
Aug 28
Last Quarter

Hourly Weather History & Observations

Time (CDT) Temp. Heat Index Dew Point Humidity Pressure Visibility Wind Dir Wind Speed Gust Speed Precip Events Conditions
12:15 AM 60.4 °F - 60.4 °F 100% 30.12 in 7.0 mi SW 3.5 mph - N/A   Clear
12:35 AM 59.0 °F - 59.0 °F 100% 30.12 in 7.0 mi South 3.5 mph - N/A   Clear
12:55 AM 57.9 °F - 57.9 °F 100% 30.11 in 5.0 mi SW 3.5 mph - N/A   Clear
1:15 AM 57.6 °F - 57.6 °F 100% 30.12 in 5.0 mi Calm Calm - N/A   Clear
1:35 AM 57.2 °F - 57.2 °F 100% 30.10 in 7.0 mi Calm Calm - N/A   Clear
1:55 AM 56.5 °F - 56.5 °F 100% 30.12 in 5.0 mi Calm Calm - N/A   Clear
2:15 AM 57.0 °F - 57.0 °F 100% 30.12 in 5.0 mi Calm Calm - N/A   Clear
2:35 AM 55.9 °F - 55.9 °F 100% 30.13 in 2.0 mi Calm Calm - N/A   Clear
2:55 AM 55.8 °F - 55.8 °F 100% 30.13 in 4.0 mi Calm Calm - N/A   Clear
3:15 AM 55.9 °F - 55.9 °F 100% 30.14 in 5.0 mi Calm Calm - N/A   Clear
3:35 AM 57.4 °F - 57.4 °F 100% 30.13 in 4.0 mi SSW 3.5 mph - N/A   Clear
3:55 AM 59.0 °F - 59.0 °F 100% 30.12 in 4.0 mi SSW 3.5 mph - N/A   Clear
4:15 AM 59.9 °F - 59.9 °F 100% 30.09 in 4.0 mi SSE 3.5 mph - N/A   Clear
4:35 AM 59.2 °F - 59.2 °F 100% 30.10 in 3.0 mi NNW 3.5 mph - N/A   Clear
4:55 AM 59.0 °F - 59.0 °F 100% 30.12 in 3.0 mi Calm Calm - N/A   Clear
5:15 AM 57.6 °F - 57.6 °F 100% 30.12 in 2.5 mi Calm Calm - N/A   Clear
5:35 AM 56.7 °F - 56.7 °F 100% 30.13 in 2.0 mi Calm Calm - N/A   Clear
5:55 AM 55.0 °F - 55.0 °F 100% 30.13 in 1.8 mi Calm Calm - N/A   Mist
6:15 AM 54.9 °F - 54.9 °F 100% 30.13 in 2.0 mi WSW 4.6 mph - N/A   Clear
6:35 AM 57.0 °F - 57.0 °F 100% 30.13 in 1.8 mi Calm Calm - N/A   Mist
6:55 AM 56.3 °F - 56.3 °F 100% 30.14 in 1.5 mi Calm Calm - N/A   Mist
7:15 AM 56.8 °F - 56.8 °F 100% 30.14 in 1.8 mi Calm Calm - N/A   Mist
7:35 AM 59.7 °F - 59.7 °F 100% 30.15 in 2.0 mi Calm Calm - N/A   Clear
7:55 AM 60.8 °F - 60.8 °F 100% 30.14 in 2.0 mi Calm Calm - N/A   Clear
8:15 AM 63.7 °F - 63.7 °F 100% 30.14 in 4.0 mi South 3.5 mph - N/A   Clear
8:35 AM 65.1 °F - 64.9 °F 99% 30.15 in 4.0 mi SSW 4.6 mph - N/A   Clear
8:55 AM 66.4 °F - 65.5 °F 97% 30.15 in 5.0 mi Calm Calm - N/A   Clear
9:15 AM 67.8 °F - 66.2 °F 95% 30.15 in 5.0 mi Calm Calm - N/A   Clear
9:35 AM 69.6 °F - 66.6 °F 90% 30.14 in 7.0 mi Calm Calm - N/A   Clear
9:55 AM 71.1 °F - 66.4 °F 85% 30.15 in 10.0 mi Calm Calm - N/A   Clear
10:15 AM 72.7 °F - 66.6 °F 81% 30.15 in 10.0 mi Calm Calm - N/A   Clear
10:35 AM 73.9 °F - 67.3 °F 80% 30.16 in 10.0 mi NNW 5.8 mph - N/A   Scattered Clouds
10:55 AM 73.2 °F - 66.7 °F 80% 30.17 in 10.0 mi North 8.1 mph - N/A   Mostly Cloudy
11:15 AM 72.9 °F - 66.6 °F 81% 30.16 in 10.0 mi NNE 5.8 mph - N/A   Scattered Clouds
11:35 AM 73.4 °F - 66.0 °F 78% 30.16 in 10.0 mi North 4.6 mph - N/A   Mostly Cloudy
11:55 AM 74.8 °F - 66.4 °F 75% 30.15 in 10.0 mi East 4.6 mph - N/A   Scattered Clouds
12:15 PM 75.2 °F - 65.5 °F 72% 30.15 in 10.0 mi NNE 3.5 mph - N/A   Scattered Clouds
12:35 PM 77.9 °F - 65.8 °F 66% 30.15 in 7.0 mi ENE 4.6 mph - N/A   Scattered Clouds
12:55 PM 76.6 °F - 66.2 °F 70% 30.14 in 10.0 mi ENE 4.6 mph - N/A   Scattered Clouds
1:15 PM 77.7 °F - 65.8 °F 67% 30.14 in 10.0 mi Calm Calm - N/A   Scattered Clouds
1:35 PM 79.0 °F - 65.1 °F 62% 30.14 in 10.0 mi NNW 3.5 mph - N/A   Mostly Cloudy
1:55 PM 78.8 °F - 63.1 °F 59% 30.14 in 5.0 mi North 5.8 mph - N/A   Haze
2:15 PM 80.6 °F 82.2 °F 64.2 °F 57% 30.13 in 5.0 mi NNW 3.5 mph - N/A   Haze
2:35 PM 78.8 °F - 64.2 °F 61% 30.13 in 5.0 mi North 3.5 mph - N/A   Haze
2:55 PM 80.8 °F 82.4 °F 64.2 °F 57% 30.13 in 5.0 mi NNW 4.6 mph - N/A   Haze
3:15 PM 79.7 °F - 63.7 °F 58% 30.12 in 5.0 mi North 3.5 mph - N/A   Haze
3:35 PM 80.1 °F 81.5 °F 63.3 °F 56% 30.12 in 7.0 mi Calm Calm - N/A   Clear
3:55 PM 79.9 °F - 62.8 °F 56% 30.12 in 5.0 mi NNW 4.6 mph - N/A   Haze
4:15 PM 78.8 °F - 63.7 °F 60% 30.12 in 7.0 mi NNW 6.9 mph - N/A Rain Heavy Rain
4:35 PM 79.9 °F - 63.3 °F 57% 30.11 in 7.0 mi NNW 6.9 mph - N/A Rain Heavy Rain
4:55 PM 78.1 °F - 62.8 °F 59% 30.10 in 5.0 mi North 5.8 mph - N/A Rain Heavy Rain
5:15 PM 81.3 °F 81.9 °F 60.6 °F 49% 30.10 in 7.0 mi WNW 8.1 mph - N/A Rain Heavy Rain
5:35 PM 81.1 °F 81.8 °F 60.3 °F 49% 30.09 in 7.0 mi North 5.8 mph - N/A Rain Heavy Rain
5:55 PM 81.1 °F 81.8 °F 60.4 °F 49% 30.09 in 7.0 mi NW 6.9 mph - N/A Rain Heavy Rain
6:15 PM 79.2 °F - 60.3 °F 52% 30.09 in 7.0 mi North 5.8 mph - N/A Rain Heavy Rain
6:35 PM 80.1 °F 80.9 °F 59.7 °F 50% 30.08 in 7.0 mi NNW 6.9 mph - N/A Rain Heavy Rain
6:55 PM 79.7 °F - 58.3 °F 48% 30.08 in 5.0 mi NNW 6.9 mph - N/A Rain Heavy Rain
7:15 PM 79.0 °F - 58.5 °F 49% 30.08 in 7.0 mi NNW 5.8 mph - N/A Rain Heavy Rain
7:35 PM 78.1 °F - 59.7 °F 53% 30.08 in 7.0 mi NNW 3.5 mph - N/A Rain Heavy Rain
7:55 PM 76.5 °F - 60.8 °F 58% 30.08 in 7.0 mi Calm Calm - N/A Rain Heavy Rain
8:15 PM 73.6 °F - 62.8 °F 69% 30.09 in 7.0 mi NW 3.5 mph - N/A Rain Heavy Rain
8:35 PM 70.5 °F - 63.9 °F 79% 30.09 in 5.0 mi WNW 3.5 mph - N/A Rain Heavy Rain
8:55 PM 69.1 °F - 63.5 °F 82% 30.10 in 5.0 mi Calm Calm - N/A Rain Heavy Rain
9:15 PM 65.7 °F - 63.0 °F 91% 30.10 in 5.0 mi Calm Calm - N/A Rain Heavy Rain
9:35 PM 63.7 °F - 61.7 °F 93% 30.11 in 7.0 mi Calm Calm - N/A Rain Rain
9:55 PM 61.7 °F - 60.3 °F 95% 30.12 in 7.0 mi Calm Calm - N/A Rain Rain
10:15 PM 61.5 °F - 60.4 °F 96% 30.12 in 7.0 mi Calm Calm - N/A Rain Heavy Rain
10:35 PM 59.9 °F - 59.2 °F 97% 30.12 in 7.0 mi Calm Calm - N/A Rain Rain
10:55 PM 59.0 °F - 57.9 °F 96% 30.13 in 7.0 mi Calm Calm - N/A Rain Rain
11:15 PM 57.7 °F - 57.2 °F 98% 30.12 in 7.0 mi SW 3.5 mph - N/A Rain Rain
11:35 PM 57.6 °F - 57.2 °F 99% 30.13 in 7.0 mi Calm Calm - N/A Rain Rain
11:55 PM 57.6 °F - 57.4 °F 99% 30.13 in 7.0 mi South 3.5 mph - N/A Rain Rain